Tracking 35274 objects as of 10-Sep-2026
HD Live streaming from Space Station
objects crossing your sky now

STARLINK-34936

Track STARLINK-34936 now!
10-day predictions
STARLINK-34936 is classified as:


NORAD ID: 65898
Int'l Code: 2025-224S
Launch date: October 7, 2025
Source: United States (US)
Launch site: AIR FORCE EASTERN TEST RANGE (AFETR)
Your satellite tracking list
Your tracking list is empty




NASA's NSSDC Master Catalog

Two Line Element Set (TLE):
1 65898U 25224S   26253.20552298  .00011756  00000-0  35856-3 0  9992
2 65898  53.1581 230.0918 0002766  94.5090 265.6229 15.34395471 53183
Source of the keplerian elements: AFSPC